#timestamp,LO_Frequency,Hit,StdDev 
1513242015.8,286046998.8,N
1513242035.6,286047000.3,N
1513242055.5,286046998.4,N
1513242075.3,286046998.8,N
1513242095.1,286046999.2,N
1513242115.9,286046996.5,N
1513242135.7,286046997.7,N
1513242155.6,286046998.5,N
1513242175.4,286047000.7,N
1513242195.2,286047001.0,N
1513242215.1,286046994.9,N
1513242216.0,286046994.9,N
1513242235.8,286046996.1,N
1513242255.7,286046996.9,N
1513242275.5,286046998.6,N
1513242295.3,286047000.2,N
1513242315.2,286047002.0,N
1513242335.0,286046999.7,N
1513242335.9,286046999.7,N
1513242355.7,286047004.4,N
1513242375.6,286047004.4,N
1513242395.4,286046999.9,N
1513242415.3,286046998.5,N
1513242435.1,286046996.6,N
1513242455.8,286046999.0,N
1513242475.7,286047000.7,N
1513242495.5,286046999.7,N
1513242515.4,286047000.0,N
1513242535.2,286047002.7,N
1513242555.0,286047004.3,N
1513242555.9,286047004.3,N
1513242575.8,286047002.1,N
1513242595.6,286046998.4,N
1513242615.5,286046999.6,N
1513242635.3,286046996.2,N
1513242655.1,286046993.4,N
1513242675.9,286046997.1,N
1513242695.7,286046999.2,N
1513242715.5,286047000.4,N
1513242735.4,286047000.0,N
1513242755.2,286047000.4,N
1513242775.1,286047002.8,N
1513242776.0,286047002.8,N
1513242795.8,286047003.7,N
1513242815.6,286047005.5,N
1513242835.5,286047005.0,N
1513242855.3,286047003.8,N
1513242875.2,286047004.2,N
1513242895.9,286047004.4,N
1513242915.7,286047011.9,Y
1513242935.6,286047001.4,P
1513242955.4,286047002.2,P
1513242975.2,286046999.2,N
1513242995.1,286046999.4,N
1513242996.0,286046999.4,N
1513243015.8,286046996.7,N
1513243035.7,286046993.7,Y
1513243055.5,286046996.3,P
1513243075.4,286046996.4,N
1513243095.2,286046994.1,P
1513243115.0,286046994.1,N
1513243115.9,286046994.1,N
1513243135.8,286046993.6,Y
1513243155.6,286046997.5,P
1513243175.4,286046996.5,P
1513243195.3,286047002.6,P
1513243215.1,286047004.4,N
1513243235.9,286047005.2,N
1513243255.7,286047007.1,N
1513243275.6,286047003.0,N
1513243295.4,286047002.3,N
1513243315.2,286047001.4,N
1513243335.1,286047001.6,N
1513243336.0,286047001.6,N
1513243355.8,286047003.7,N
1513243375.6,286047003.5,N
1513243395.5,286047007.5,N
1513243415.3,286047005.6,N
1513243435.2,286047002.6,N
1513243455.9,286047005.6,N
1513243475.7,286047004.8,N
1513243495.6,286047007.5,N
1513243515.4,286047005.6,N
1513243535.3,286047007.6,N
1513243555.1,286047007.3,N
1513243556.0,286047007.3,N
1513243575.8,286047007.3,N
1513243595.7,286047005.2,N
1513243615.5,286047004.3,N
1513243635.4,286047003.6,N
1513243655.2,286047005.2,N
1513243675.0,286047004.4,N
1513243675.9,286047004.4,N
1513243695.8,286047003.1,N
1513243715.6,286047001.7,N
1513243735.4,286047006.0,Y
1513243755.3,286047001.0,P
1513243775.1,286046998.4,N
1513243795.9,286047000.7,N
1513243815.7,286047002.5,N
1513243835.5,286046999.7,N
1513243855.4,286046999.7,N
1513243875.2,286047000.4,N
1513243895.1,286047000.2,N
1513243896.0,286047000.2,N
1513243915.8,286047000.6,N
1513243935.6,286046999.8,N
1513243955.5,286047001.7,N
1513243975.3,286047004.3,N
1513243995.2,286047003.3,N
1513244015.9,286047001.9,N
1513244035.7,286047001.4,N
1513244055.6,286047002.7,N
1513244075.4,286046998.2,N
1513244095.2,286047000.9,N
1513244115.1,286046998.3,N
1513244116.0,286046998.3,N
1513244135.8,286046997.6,N
1513244155.7,286046997.9,N
1513244175.5,286046995.0,N
1513244195.3,286046996.0,N
1513244215.2,286046995.7,N
1513244235.0,286046997.8,N
1513244235.9,286046997.8,N
1513244255.8,286046998.8,N
1513244275.6,286046999.5,N
1513244295.4,286046998.5,N
1513244315.3,286047000.3,N
1513244335.1,286046998.4,N
1513244355.8,286046997.6,N
1513244375.7,286046998.4,N
1513244395.5,286047001.0,N
1513244415.4,286047000.7,N
1513244435.2,286046999.5,N
1513244455.0,286046999.2,N
1513244455.9,286046999.2,N
1513244475.8,286046993.3,Y
1513244495.6,286046995.7,P
1513244515.5,286046997.3,N
1513244535.3,286046996.9,N
1513244555.1,286046999.3,N
1513244575.9,286047000.0,N
1513244595.7,286046998.9,N
1513244615.6,286046994.9,Y
1513244635.4,286046999.5,P
1513244655.2,286046998.2,N
1513244675.1,286046999.5,N
1513244676.0,286046999.5,N
1513244695.8,286046998.6,N
1513244715.6,286047001.0,N
1513244735.5,286047003.1,Y
1513244755.3,286047007.5,P
1513244775.2,286047002.5,N
1513244795.9,286047000.7,N
1513244815.7,286046998.5,N
1513244835.6,286046998.3,N
1513244855.4,286046998.6,N
1513244875.3,286046998.1,N
1513244895.1,286046998.6,N
1513244896.0,286046998.6,N
1513244915.8,286046999.8,N
1513244935.7,286047000.3,N
1513244955.5,286046998.5,N
1513244975.3,286046996.9,N
1513244995.2,286046999.4,N
1513245015.0,286046999.3,N
1513245015.9,286046999.3,N
1513245035.8,286047000.9,N
1513245055.6,286046998.6,N
1513245075.4,286047000.5,N
1513245095.3,286046998.7,N
1513245115.1,286046994.8,N
1513245135.9,286046994.8,N
1513245155.7,286046993.3,N
1513245175.5,286046994.7,N
1513245195.4,286046993.0,N
1513245215.2,286046992.5,N
1513245235.0,286046994.4,N
1513245235.9,286046994.4,N
1513245255.8,286046994.5,N
1513245275.6,286046990.8,N
1513245295.5,286046989.6,Y
1513245315.3,286046989.0,P
1513245335.1,286046990.6,N
1513245355.9,286046990.7,N
1513245375.7,286046989.0,Y
1513245395.6,286046998.6,P
1513245415.4,286046998.7,N
1513245435.2,286046999.1,N
1513245455.1,286047000.5,N
1513245456.0,286047000.5,N
1513245475.8,286047000.7,N
1513245495.7,286047003.7,N
1513245515.5,286047000.0,N
1513245535.3,286047000.5,N
1513245555.2,286046995.3,N
1513245575.0,286046995.6,N
1513245575.9,286046995.6,N
1513245595.8,286046993.3,N
